Time,TemperatureF,DewpointF,PressureIn,WindDirection,WindDirectionDegrees,WindSpeedMPH,WindSpeedGustMPH,Humidity,HourlyPrecipIn,Conditions,Clouds,dailyrainin,SoftwareType,DateUTC
2013-01-29 00:00:00,29.5,20.8,29.22,ESE,113,2.0,2.0,70,0.00,,,0.00,meteohub,2013-01-29 05:00:00,
2013-01-29 00:01:00,29.5,20.8,29.22,ESE,113,2.0,2.0,70,0.00,,,0.00,meteohub,2013-01-29 05:01:00,
2013-01-29 00:04:00,29.3,20.7,29.22,East,90,0.0,1.0,70,0.00,,,0.00,meteohub,2013-01-29 05:04:00,
2013-01-29 00:09:00,29.5,20.8,29.22,East,90,0.0,3.0,70,0.00,,,0.00,meteohub,2013-01-29 05:09:00,
2013-01-29 00:14:00,29.5,20.8,29.22,ESE,113,0.0,2.0,70,0.00,,,0.00,meteohub,2013-01-29 05:14:00,
2013-01-29 00:19:00,29.5,20.8,29.23,ENE,68,2.0,2.0,70,0.00,,,0.00,meteohub,2013-01-29 05:19:00,
2013-01-29 00:24:00,29.5,20.8,29.23,East,90,2.0,2.0,70,0.00,,,0.00,meteohub,2013-01-29 05:24:00,
2013-01-29 00:30:00,29.5,20.8,29.23,East,90,2.0,3.0,70,0.00,,,0.00,meteohub,2013-01-29 05:30:00,
2013-01-29 00:35:00,29.5,20.8,29.23,WSW,248,0.0,3.0,70,0.00,,,0.00,meteohub,2013-01-29 05:35:00,
2013-01-29 00:40:00,29.5,20.8,29.23,ESE,113,0.0,3.0,70,0.00,,,0.00,meteohub,2013-01-29 05:40:00,
2013-01-29 00:45:00,29.5,20.8,29.23,ESE,113,1.0,3.0,70,0.00,,,0.00,meteohub,2013-01-29 05:45:00,
2013-01-29 00:50:00,29.5,20.8,29.23,SSE,158,2.0,3.0,70,0.00,,,0.00,meteohub,2013-01-29 05:50:00,
2013-01-29 00:55:00,29.5,20.8,29.23,SSE,158,0.0,3.0,70,0.00,,,0.00,meteohub,2013-01-29 05:55:00,
2013-01-29 01:00:00,29.5,20.8,29.21,South,180,0.0,3.0,70,0.00,,,0.00,meteohub,2013-01-29 06:00:00,
2013-01-29 01:05:00,29.5,20.8,29.21,ESE,113,0.0,3.0,70,0.00,,,0.00,meteohub,2013-01-29 06:05:00,
2013-01-29 01:10:00,29.5,20.8,29.21,ESE,113,0.0,3.0,70,0.00,,,0.00,meteohub,2013-01-29 06:10:00,
2013-01-29 01:15:00,29.5,20.8,29.20,ESE,113,2.0,2.0,70,0.00,,,0.00,meteohub,2013-01-29 06:15:00,
2013-01-29 01:20:00,29.5,20.8,29.20,East,90,0.0,2.0,70,0.00,,,0.00,meteohub,2013-01-29 06:20:00,
2013-01-29 01:25:00,29.7,21.0,29.20,ESE,113,2.0,3.0,70,0.00,,,0.00,meteohub,2013-01-29 06:25:00,
2013-01-29 01:30:00,29.7,21.0,29.20,SSE,158,1.0,3.0,70,0.00,,,0.00,meteohub,2013-01-29 06:30:00,
2013-01-29 01:35:00,29.7,21.0,29.18,SE,135,2.0,3.0,70,0.00,,,0.00,meteohub,2013-01-29 06:35:00,
2013-01-29 01:40:00,29.7,21.0,29.18,East,90,3.0,3.0,70,0.00,,,0.00,meteohub,2013-01-29 06:40:00,
2013-01-29 01:45:00,29.8,21.2,29.18,East,90,2.0,3.0,70,0.00,,,0.00,meteohub,2013-01-29 06:45:00,
2013-01-29 01:50:00,29.8,21.2,29.18,SE,135,3.0,3.0,70,0.00,,,0.00,meteohub,2013-01-29 06:50:00,
2013-01-29 01:55:00,29.8,21.2,29.18,ESE,113,4.0,4.0,70,0.00,,,0.00,meteohub,2013-01-29 06:55:00,
2013-01-29 02:00:00,30.0,21.4,29.16,NE,45,2.0,3.0,70,0.00,,,0.00,meteohub,2013-01-29 07:00:00,
2013-01-29 02:05:00,30.0,21.4,29.16,East,90,2.0,4.0,70,0.00,,,0.00,meteohub,2013-01-29 07:05:00,
2013-01-29 02:10:00,30.2,21.6,29.16,ESE,113,5.0,5.0,70,0.00,,,0.00,meteohub,2013-01-29 07:10:00,
2013-01-29 02:15:00,30.2,21.6,29.14,SE,135,3.0,5.0,70,0.00,,,0.00,meteohub,2013-01-29 07:15:00,
2013-01-29 02:20:00,30.2,21.6,29.14,SE,135,2.0,5.0,70,0.00,,,0.00,meteohub,2013-01-29 07:20:00,
2013-01-29 02:25:00,30.2,21.6,29.14,WNW,293,0.0,5.0,70,0.00,,,0.00,meteohub,2013-01-29 07:25:00,
2013-01-29 02:30:00,30.2,21.6,29.14,ESE,113,3.0,5.0,70,0.00,,,0.00,meteohub,2013-01-29 07:30:00,
2013-01-29 02:35:00,30.2,21.6,29.15,SE,135,2.0,3.0,70,0.00,,,0.00,meteohub,2013-01-29 07:35:00,
2013-01-29 02:40:00,30.2,21.6,29.15,East,90,3.0,3.0,70,0.00,,,0.00,meteohub,2013-01-29 07:40:00,
2013-01-29 02:45:00,30.2,21.6,29.15,ESE,113,2.0,3.0,70,0.00,,,0.00,meteohub,2013-01-29 07:45:00,
2013-01-29 02:50:00,30.4,21.7,29.15,SE,135,3.0,3.0,70,0.00,,,0.00,meteohub,2013-01-29 07:50:00,
2013-01-29 02:55:00,30.4,21.7,29.14,SE,135,2.0,3.0,70,0.00,,,0.00,meteohub,2013-01-29 07:55:00,
2013-01-29 03:00:00,30.4,21.7,29.14,East,90,3.0,3.0,70,0.00,,,0.00,meteohub,2013-01-29 08:00:00,
2013-01-29 03:05:00,30.6,21.9,29.14,SE,135,4.0,6.0,70,0.00,,,0.00,meteohub,2013-01-29 08:05:00,
2013-01-29 03:10:00,30.6,21.9,29.14,East,90,4.0,6.0,70,0.00,,,0.00,meteohub,2013-01-29 08:10:00,
2013-01-29 03:15:00,30.6,21.9,29.11,ESE,113,3.0,6.0,70,0.00,,,0.00,meteohub,2013-01-29 08:15:00,
2013-01-29 03:20:00,30.6,21.9,29.11,ESE,113,3.0,6.0,70,0.00,,,0.00,meteohub,2013-01-29 08:20:00,
2013-01-29 03:25:00,30.6,21.9,29.11,SE,135,3.0,5.0,70,0.00,,,0.00,meteohub,2013-01-29 08:25:00,
2013-01-29 03:30:00,30.6,21.9,29.11,East,90,3.0,5.0,70,0.00,,,0.00,meteohub,2013-01-29 08:30:00,
2013-01-29 03:36:00,30.6,21.9,29.10,SSE,158,2.0,3.0,70,0.00,,,0.00,meteohub,2013-01-29 08:36:00,
2013-01-29 03:41:00,30.6,21.9,29.10,ESE,113,4.0,4.0,70,0.00,,,0.00,meteohub,2013-01-29 08:41:00,
2013-01-29 03:46:00,30.7,22.1,29.10,East,90,6.0,6.0,70,0.00,,,0.00,meteohub,2013-01-29 08:46:00,
2013-01-29 03:51:00,30.7,22.1,29.10,ESE,113,3.0,4.0,70,0.00,,,0.00,meteohub,2013-01-29 08:51:00,
2013-01-29 03:56:00,30.9,21.9,29.10,East,90,4.0,6.0,69,0.00,,,0.00,meteohub,2013-01-29 08:56:00,
2013-01-29 04:01:00,30.9,21.9,29.10,East,90,4.0,6.0,69,0.00,,,0.00,meteohub,2013-01-29 09:01:00,
2013-01-29 04:06:00,30.9,21.9,29.10,NE,45,4.0,6.0,69,0.00,,,0.00,meteohub,2013-01-29 09:06:00,
2013-01-29 04:11:00,30.9,21.9,29.10,SE,135,3.0,6.0,69,0.00,,,0.00,meteohub,2013-01-29 09:11:00,
2013-01-29 04:16:00,31.1,22.1,29.08,SSE,158,4.0,4.0,69,0.00,,,0.00,meteohub,2013-01-29 09:16:00,
2013-01-29 04:21:00,31.3,22.6,29.08,ENE,68,3.0,4.0,70,0.00,,,0.00,meteohub,2013-01-29 09:21:00,
2013-01-29 04:26:00,31.3,22.6,29.08,SE,135,5.0,5.0,70,0.00,,,0.00,meteohub,2013-01-29 09:26:00,
2013-01-29 04:31:00,31.3,22.6,29.08,ESE,113,4.0,5.0,70,0.00,,,0.00,meteohub,2013-01-29 09:31:00,
2013-01-29 04:36:00,31.3,22.6,29.07,ESE,113,2.0,5.0,70,0.00,,,0.00,meteohub,2013-01-29 09:36:00,
2013-01-29 04:41:00,31.5,22.8,29.07,ESE,113,4.0,5.0,70,0.00,,,0.00,meteohub,2013-01-29 09:41:00,
2013-01-29 04:46:00,31.6,22.6,29.07,ESE,113,4.0,5.0,69,0.00,,,0.00,meteohub,2013-01-29 09:46:00,
2013-01-29 04:51:00,31.6,22.6,29.07,ESE,113,5.0,5.0,69,0.00,,,0.00,meteohub,2013-01-29 09:51:00,
2013-01-29 04:56:00,31.6,22.6,29.05,ESE,113,4.0,7.0,69,0.00,,,0.00,meteohub,2013-01-29 09:56:00,
2013-01-29 05:01:00,31.8,22.8,29.05,ESE,113,2.0,7.0,69,0.00,,,0.00,meteohub,2013-01-29 10:01:00,
2013-01-29 05:06:00,31.8,22.8,29.05,East,90,5.0,7.0,69,0.00,,,0.00,meteohub,2013-01-29 10:06:00,
2013-01-29 05:11:00,31.8,22.8,29.05,East,90,3.0,6.0,69,0.00,,,0.00,meteohub,2013-01-29 10:11:00,
2013-01-29 05:16:00,31.8,22.8,29.03,NE,45,4.0,6.0,69,0.00,,,0.00,meteohub,2013-01-29 10:16:00,
2013-01-29 05:21:00,32.0,23.0,29.03,South,180,3.0,6.0,69,0.00,,,0.00,meteohub,2013-01-29 10:21:00,
2013-01-29 05:26:00,32.0,23.0,29.03,SSE,158,2.0,6.0,69,0.00,,,0.00,meteohub,2013-01-29 10:26:00,
2013-01-29 05:31:00,32.0,23.0,29.03,East,90,1.0,6.0,69,0.00,,,0.00,meteohub,2013-01-29 10:31:00,
2013-01-29 05:36:00,32.0,23.0,29.03,SSE,158,3.0,6.0,69,0.00,,,0.00,meteohub,2013-01-29 10:36:00,
2013-01-29 05:41:00,32.0,23.0,29.03,SE,135,3.0,3.0,69,0.00,,,0.00,meteohub,2013-01-29 10:41:00,
2013-01-29 05:46:00,32.0,23.0,29.03,ESE,113,4.0,4.0,69,0.00,,,0.00,meteohub,2013-01-29 10:46:00,
2013-01-29 05:51:00,32.2,23.2,29.03,ESE,113,2.0,5.0,69,0.00,,,0.00,meteohub,2013-01-29 10:51:00,
2013-01-29 05:56:00,32.2,23.2,29.01,East,90,4.0,5.0,69,0.00,,,0.00,meteohub,2013-01-29 10:56:00,
2013-01-29 06:01:00,32.4,23.4,29.01,SE,135,5.0,9.0,69,0.00,,,0.00,meteohub,2013-01-29 11:01:00,
2013-01-29 06:06:00,32.4,23.4,29.01,SE,135,2.0,9.0,69,0.00,,,0.00,meteohub,2013-01-29 11:06:00,
2013-01-29 06:11:00,32.5,23.5,29.01,East,90,3.0,6.0,69,0.00,,,0.00,meteohub,2013-01-29 11:11:00,
2013-01-29 06:16:00,32.5,23.5,29.00,NE,45,3.0,6.0,69,0.00,,,0.00,meteohub,2013-01-29 11:16:00,
2013-01-29 06:21:00,32.7,23.7,29.00,ESE,113,4.0,6.0,69,0.00,,,0.00,meteohub,2013-01-29 11:21:00,
2013-01-29 06:26:00,32.7,23.7,29.00,East,90,3.0,6.0,69,0.00,,,0.00,meteohub,2013-01-29 11:26:00,
2013-01-29 06:31:00,32.9,23.9,29.00,ENE,68,4.0,5.0,69,0.00,,,0.00,meteohub,2013-01-29 11:31:00,
2013-01-29 06:36:00,32.9,23.9,28.98,East,90,6.0,6.0,69,0.00,,,0.00,meteohub,2013-01-29 11:36:00,
2013-01-29 06:41:00,32.9,23.9,28.98,East,90,4.0,10.0,69,0.00,,,0.00,meteohub,2013-01-29 11:41:00,
2013-01-29 06:46:00,33.1,24.1,28.98,ESE,113,5.0,10.0,69,0.00,,,0.00,meteohub,2013-01-29 11:46:00,
2013-01-29 06:51:00,33.1,23.7,28.98,East,90,4.0,10.0,68,0.00,,,0.00,meteohub,2013-01-29 11:51:00,
2013-01-29 06:56:00,33.3,23.9,28.95,ESE,113,2.0,10.0,68,0.00,,,0.00,meteohub,2013-01-29 11:56:00,
2013-01-29 07:01:00,33.3,23.9,28.95,NE,45,3.0,8.0,68,0.00,,,0.00,meteohub,2013-01-29 12:01:00,
2013-01-29 07:06:00,33.4,24.4,28.95,ENE,68,4.0,6.0,69,0.00,,,0.00,meteohub,2013-01-29 12:06:00,
2013-01-29 07:11:00,33.6,24.6,28.95,East,90,4.0,6.0,69,0.00,,,0.00,meteohub,2013-01-29 12:11:00,
2013-01-29 07:16:00,33.6,24.6,28.95,NE,45,3.0,5.0,69,0.00,,,0.00,meteohub,2013-01-29 12:16:00,
2013-01-29 07:21:00,33.6,24.6,28.95,East,90,4.0,5.0,69,0.00,,,0.00,meteohub,2013-01-29 12:21:00,
2013-01-29 07:26:00,33.8,24.8,28.95,ESE,113,7.0,7.0,69,0.00,,,0.00,meteohub,2013-01-29 12:26:00,
2013-01-29 07:31:00,34.0,24.8,28.95,NE,45,4.0,6.0,69,0.00,,,0.00,meteohub,2013-01-29 12:31:00,
2013-01-29 07:36:00,34.3,24.8,28.93,South,180,5.0,7.0,68,0.00,,,0.00,meteohub,2013-01-29 12:36:00,
2013-01-29 07:41:00,34.3,24.8,28.93,ESE,113,8.0,8.0,68,0.00,,,0.00,meteohub,2013-01-29 12:41:00,
2013-01-29 07:47:00,34.3,24.8,28.93,ESE,113,4.0,9.0,68,0.00,,,0.00,meteohub,2013-01-29 12:47:00,
2013-01-29 07:52:00,34.3,24.8,28.93,SE,135,6.0,9.0,68,0.00,,,0.00,meteohub,2013-01-29 12:52:00,
2013-01-29 07:57:00,34.3,24.8,28.92,ESE,113,6.0,9.0,68,0.00,,,0.00,meteohub,2013-01-29 12:57:00,
2013-01-29 08:02:00,34.3,24.8,28.92,East,90,5.0,9.0,68,0.00,,,0.00,meteohub,2013-01-29 13:02:00,
2013-01-29 08:07:00,34.3,24.8,28.92,ESE,113,4.0,8.0,68,0.00,,,0.00,meteohub,2013-01-29 13:07:00,
2013-01-29 08:12:00,34.7,25.2,28.92,ESE,113,6.0,8.0,68,0.00,,,0.00,meteohub,2013-01-29 13:12:00,
2013-01-29 08:17:00,34.9,25.3,28.92,NNE,23,4.0,6.0,68,0.00,,,0.00,meteohub,2013-01-29 13:17:00,
2013-01-29 08:22:00,35.2,25.7,28.92,East,90,5.0,6.0,68,0.00,,,0.00,meteohub,2013-01-29 13:22:00,
2013-01-29 08:27:00,35.4,25.9,28.92,East,90,2.0,6.0,68,0.00,,,0.00,meteohub,2013-01-29 13:27:00,
2013-01-29 08:32:00,35.8,26.2,28.92,SE,135,4.0,6.0,68,0.00,,,0.00,meteohub,2013-01-29 13:32:00,
2013-01-29 08:37:00,36.0,26.4,28.92,ESE,113,4.0,6.0,68,0.00,,,0.00,meteohub,2013-01-29 13:37:00,
2013-01-29 08:42:00,35.8,26.2,28.92,ESE,113,4.0,6.0,68,0.00,,,0.00,meteohub,2013-01-29 13:42:00,
2013-01-29 08:47:00,35.8,26.2,28.92,ESE,113,5.0,5.0,68,0.00,,,0.00,meteohub,2013-01-29 13:47:00,
2013-01-29 08:52:00,35.8,26.2,28.92,ESE,113,4.0,4.0,68,0.00,,,0.00,meteohub,2013-01-29 13:52:00,
2013-01-29 08:57:00,36.0,26.4,28.92,SSE,158,4.0,5.0,68,0.00,,,0.00,meteohub,2013-01-29 13:57:00,
2013-01-29 09:02:00,36.0,26.4,28.92,ESE,113,4.0,5.0,68,0.00,,,0.00,meteohub,2013-01-29 14:02:00,
2013-01-29 09:07:00,36.1,26.6,28.92,East,90,2.0,5.0,68,0.00,,,0.00,meteohub,2013-01-29 14:07:00,
2013-01-29 09:12:00,36.3,26.8,28.92,SSE,158,4.0,5.0,68,0.00,,,0.00,meteohub,2013-01-29 14:12:00,
2013-01-29 09:17:00,36.3,26.8,28.92,SE,135,5.0,5.0,68,0.00,,,0.00,meteohub,2013-01-29 14:17:00,
2013-01-29 09:22:00,36.3,26.8,28.92,East,90,5.0,5.0,68,0.00,,,0.00,meteohub,2013-01-29 14:22:00,
2013-01-29 09:27:00,36.5,27.0,28.92,ESE,113,4.0,7.0,68,0.00,,,0.00,meteohub,2013-01-29 14:27:00,
2013-01-29 09:32:00,36.5,27.0,28.92,ESE,113,3.0,7.0,68,0.00,,,0.00,meteohub,2013-01-29 14:32:00,
2013-01-29 09:37:00,36.5,27.0,28.92,SE,135,2.0,6.0,68,0.00,,,0.00,meteohub,2013-01-29 14:37:00,
2013-01-29 09:42:00,36.5,27.0,28.92,SE,135,2.0,6.0,68,0.00,,,0.00,meteohub,2013-01-29 14:42:00,
2013-01-29 09:47:00,36.5,27.0,28.92,ESE,113,3.0,5.0,68,0.00,,,0.00,meteohub,2013-01-29 14:47:00,
2013-01-29 09:52:00,36.5,27.0,28.92,ESE,113,4.0,5.0,68,0.00,,,0.00,meteohub,2013-01-29 14:52:00,
2013-01-29 09:57:00,36.5,27.0,28.89,NW,315,3.0,7.0,68,0.00,,,0.00,meteohub,2013-01-29 14:57:00,
2013-01-29 10:02:00,36.7,27.1,28.89,SE,135,6.0,7.0,68,0.00,,,0.00,meteohub,2013-01-29 15:02:00,
2013-01-29 10:07:00,36.9,27.3,28.89,ESE,113,3.0,7.0,68,0.00,,,0.00,meteohub,2013-01-29 15:07:00,
2013-01-29 10:12:00,36.9,27.3,28.89,SE,135,2.0,7.0,68,0.00,,,0.00,meteohub,2013-01-29 15:12:00,
2013-01-29 10:17:00,37.0,27.5,28.89,SE,135,3.0,7.0,68,0.00,,,0.00,meteohub,2013-01-29 15:17:00,
2013-01-29 10:22:00,37.2,27.7,28.89,SSE,158,9.0,9.0,68,0.00,,,0.00,meteohub,2013-01-29 15:22:00,
2013-01-29 10:27:00,37.4,27.9,28.89,SSE,158,6.0,9.0,68,0.00,,,0.00,meteohub,2013-01-29 15:27:00,
2013-01-29 10:32:00,37.6,28.0,28.89,SE,135,5.0,9.0,68,0.00,,,0.00,meteohub,2013-01-29 15:32:00,
2013-01-29 10:37:00,37.8,28.2,28.89,SE,135,3.0,9.0,68,0.00,,,0.00,meteohub,2013-01-29 15:37:00,
2013-01-29 10:42:00,37.9,28.4,28.89,SSE,158,4.0,9.0,68,0.00,,,0.00,meteohub,2013-01-29 15:42:00,
2013-01-29 10:47:00,37.8,28.2,28.89,SE,135,4.0,7.0,68,0.00,,,0.00,meteohub,2013-01-29 15:47:00,
2013-01-29 10:52:00,37.9,28.4,28.89,NW,315,4.0,7.0,68,0.00,,,0.00,meteohub,2013-01-29 15:52:00,
2013-01-29 10:57:00,37.9,28.4,28.88,South,180,4.0,5.0,68,0.00,,,0.00,meteohub,2013-01-29 15:57:00,
2013-01-29 11:02:00,38.1,28.6,28.88,SSE,158,3.0,5.0,68,0.00,,,0.03,meteohub,2013-01-29 16:02:00,
2013-01-29 11:07:00,38.3,28.8,28.88,SE,135,2.0,4.0,68,0.03,,,0.03,meteohub,2013-01-29 16:07:00,
2013-01-29 11:12:00,38.3,28.8,28.88,ESE,113,5.0,5.0,68,0.03,,,0.05,meteohub,2013-01-29 16:12:00,
2013-01-29 11:17:00,38.3,28.8,28.87,NE,45,2.0,4.0,68,0.05,,,0.05,meteohub,2013-01-29 16:17:00,
2013-01-29 11:22:00,38.3,28.8,28.87,East,90,5.0,5.0,68,0.05,,,0.08,meteohub,2013-01-29 16:22:00,
2013-01-29 11:27:00,38.5,28.8,28.87,ESE,113,4.0,5.0,68,0.08,,,0.08,meteohub,2013-01-29 16:27:00,
2013-01-29 11:32:00,38.7,28.9,28.87,ESE,113,3.0,5.0,68,0.08,,,0.11,meteohub,2013-01-29 16:32:00,
2013-01-29 11:37:00,38.8,29.1,28.87,NE,45,3.0,7.0,68,0.11,,,0.11,meteohub,2013-01-29 16:37:00,
2013-01-29 11:42:00,38.8,29.1,28.87,SE,135,4.0,7.0,68,0.11,,,0.16,meteohub,2013-01-29 16:42:00,
2013-01-29 11:47:00,39.0,29.3,28.87,East,90,4.0,7.0,68,0.16,,,0.16,meteohub,2013-01-29 16:47:00,
2013-01-29 11:52:00,39.0,29.3,28.87,ESE,113,5.0,7.0,68,0.16,,,0.19,meteohub,2013-01-29 16:52:00,
2013-01-29 11:57:00,39.2,29.5,28.85,East,90,6.0,7.0,68,0.19,,,0.19,meteohub,2013-01-29 16:57:00,
2013-01-29 12:02:00,39.4,29.7,28.85,SE,135,5.0,7.0,68,0.19,,,0.22,meteohub,2013-01-29 17:02:00,
2013-01-29 12:07:00,39.6,29.8,28.85,ESE,113,4.0,7.0,68,0.19,,,0.22,meteohub,2013-01-29 17:07:00,
2013-01-29 12:12:00,40.1,30.4,28.85,SSE,158,5.0,7.0,68,0.19,,,0.24,meteohub,2013-01-29 17:12:00,
2013-01-29 12:17:00,40.1,30.4,28.82,SE,135,4.0,7.0,68,0.19,,,0.24,meteohub,2013-01-29 17:17:00,
2013-01-29 12:22:00,40.3,30.6,28.82,SE,135,2.0,7.0,68,0.19,,,0.27,meteohub,2013-01-29 17:22:00,
2013-01-29 12:27:00,40.8,31.1,28.82,SSE,158,4.0,5.0,68,0.17,,,0.27,meteohub,2013-01-29 17:27:00,
2013-01-29 12:32:00,41.2,31.5,28.82,SE,135,2.0,5.0,68,0.17,,,0.30,meteohub,2013-01-29 17:32:00,
2013-01-29 12:37:00,41.2,31.5,28.81,ESE,113,0.0,5.0,68,0.17,,,0.30,meteohub,2013-01-29 17:37:00,
2013-01-29 12:42:00,41.4,31.6,28.81,South,180,0.0,5.0,68,0.17,,,0.30,meteohub,2013-01-29 17:42:00,
2013-01-29 12:47:00,41.5,31.8,28.81,South,180,0.0,2.0,68,0.14,,,0.30,meteohub,2013-01-29 17:47:00,
2013-01-29 12:52:00,41.7,32.0,28.81,ESE,113,0.0,2.0,68,0.14,,,0.30,meteohub,2013-01-29 17:52:00,
2013-01-29 12:57:00,41.9,32.2,28.81,ESE,113,2.0,2.0,68,0.11,,,0.30,meteohub,2013-01-29 17:57:00,
2013-01-29 13:02:00,41.7,32.0,28.81,East,90,2.0,2.0,68,0.11,,,0.30,meteohub,2013-01-29 18:02:00,
2013-01-29 13:07:00,41.9,32.2,28.81,SE,135,3.0,3.0,68,0.06,,,0.30,meteohub,2013-01-29 18:07:00,
2013-01-29 13:12:00,42.3,32.5,28.81,SE,135,2.0,3.0,68,0.06,,,0.30,meteohub,2013-01-29 18:12:00,
2013-01-29 13:17:00,42.3,32.2,28.81,ESE,113,2.0,3.0,67,0.06,,,0.30,meteohub,2013-01-29 18:17:00,
2013-01-29 13:22:00,42.3,32.2,28.81,ESE,113,2.0,3.0,67,0.06,,,0.30,meteohub,2013-01-29 18:22:00,
2013-01-29 13:27:00,42.4,32.2,28.81,ESE,113,3.0,3.0,67,0.03,,,0.30,meteohub,2013-01-29 18:27:00,
2013-01-29 13:32:00,42.6,32.4,28.81,ESE,113,3.0,3.0,67,0.03,,,0.30,meteohub,2013-01-29 18:32:00,
2013-01-29 13:37:00,42.8,32.5,28.80,NW,315,3.0,3.0,67,0.00,,,0.30,meteohub,2013-01-29 18:37:00,
2013-01-29 13:42:00,43.0,32.7,28.80,ESE,113,3.0,3.0,67,0.00,,,0.30,meteohub,2013-01-29 18:42:00,
2013-01-29 13:47:00,43.3,33.1,28.80,SE,135,3.0,6.0,67,0.00,,,0.30,meteohub,2013-01-29 18:47:00,
2013-01-29 13:52:00,43.3,33.1,28.80,SE,135,0.0,6.0,67,0.00,,,0.30,meteohub,2013-01-29 18:52:00,
2013-01-29 13:57:00,43.7,33.4,28.79,ESE,113,4.0,4.0,67,0.00,,,0.30,meteohub,2013-01-29 18:57:00,
2013-01-29 14:02:00,43.9,33.6,28.79,SE,135,3.0,4.0,67,0.00,,,0.30,meteohub,2013-01-29 19:02:00,
2013-01-29 14:07:00,44.4,34.2,28.79,SSW,203,3.0,4.0,67,0.00,,,0.30,meteohub,2013-01-29 19:07:00,
2013-01-29 14:12:00,44.4,34.2,28.79,SE,135,4.0,4.0,67,0.00,,,0.30,meteohub,2013-01-29 19:12:00,
2013-01-29 14:17:00,44.6,34.3,28.79,SE,135,4.0,5.0,67,0.00,,,0.30,meteohub,2013-01-29 19:17:00,
2013-01-29 14:22:00,44.8,34.5,28.79,SSE,158,4.0,5.0,67,0.00,,,0.30,meteohub,2013-01-29 19:22:00,
2013-01-29 14:27:00,45.0,34.7,28.79,ESE,113,2.0,6.0,67,0.00,,,0.30,meteohub,2013-01-29 19:27:00,
2013-01-29 14:32:00,45.0,34.7,28.79,ESE,113,2.0,6.0,67,0.00,,,0.30,meteohub,2013-01-29 19:32:00,
2013-01-29 14:37:00,45.1,34.9,28.78,ESE,113,2.0,5.0,67,0.00,,,0.30,meteohub,2013-01-29 19:37:00,
2013-01-29 14:42:00,45.1,34.9,28.78,SE,135,2.0,5.0,67,0.00,,,0.30,meteohub,2013-01-29 19:42:00,
2013-01-29 14:47:00,45.3,35.1,28.78,SE,135,2.0,5.0,67,0.00,,,0.30,meteohub,2013-01-29 19:47:00,
2013-01-29 14:52:00,45.3,35.1,28.78,SE,135,1.0,5.0,67,0.00,,,0.30,meteohub,2013-01-29 19:52:00,
2013-01-29 14:58:00,45.5,35.2,28.79,ESE,113,2.0,4.0,67,0.00,,,0.30,meteohub,2013-01-29 19:58:00,
2013-01-29 15:01:00,45.5,35.2,28.79,SE,135,0.0,4.0,67,0.00,,,0.30,meteohub,2013-01-29 20:01:00,
2013-01-29 15:06:00,45.7,35.1,28.79,SSE,158,0.0,2.0,66,0.00,,,0.30,meteohub,2013-01-29 20:06:00,
2013-01-29 15:12:00,45.9,35.1,28.79,ESE,113,0.0,2.0,66,0.00,,,0.30,meteohub,2013-01-29 20:12:00,
2013-01-29 15:17:00,46.0,35.2,28.77,SSE,158,1.0,2.0,66,0.00,,,0.30,meteohub,2013-01-29 20:17:00,
2013-01-29 15:22:00,46.2,35.4,28.77,SE,135,2.0,2.0,66,0.00,,,0.30,meteohub,2013-01-29 20:22:00,
2013-01-29 15:27:00,46.2,35.4,28.77,ENE,68,0.0,4.0,66,0.00,,,0.30,meteohub,2013-01-29 20:27:00,
2013-01-29 15:32:00,46.4,35.6,28.77,ESE,113,3.0,4.0,66,0.00,,,0.30,meteohub,2013-01-29 20:32:00,
2013-01-29 15:37:00,46.6,35.8,28.77,South,180,4.0,4.0,66,0.00,,,0.30,meteohub,2013-01-29 20:37:00,
2013-01-29 15:42:00,46.8,36.0,28.77,SSE,158,4.0,4.0,66,0.00,,,0.30,meteohub,2013-01-29 20:42:00,
2013-01-29 15:47:00,46.9,36.5,28.77,SSW,203,6.0,6.0,67,0.00,,,0.30,meteohub,2013-01-29 20:47:00,
2013-01-29 15:52:00,47.1,36.7,28.77,SW,225,6.0,6.0,67,0.00,,,0.30,meteohub,2013-01-29 20:52:00,
2013-01-29 15:57:00,47.3,36.9,28.78,SSW,203,5.0,6.0,67,0.00,,,0.30,meteohub,2013-01-29 20:57:00,
2013-01-29 16:02:00,47.5,37.0,28.78,SSE,158,5.0,6.0,67,0.00,,,0.30,meteohub,2013-01-29 21:02:00,
2013-01-29 16:07:00,47.7,37.2,28.78,South,180,6.0,7.0,67,0.00,,,0.30,meteohub,2013-01-29 21:07:00,
2013-01-29 16:12:00,47.8,37.4,28.78,SSE,158,7.0,7.0,67,0.00,,,0.30,meteohub,2013-01-29 21:12:00,
2013-01-29 16:17:00,48.0,37.6,28.77,SSW,203,6.0,10.0,67,0.00,,,0.30,meteohub,2013-01-29 21:17:00,
2013-01-29 16:22:00,48.2,37.8,28.77,ESE,113,7.0,10.0,67,0.00,,,0.30,meteohub,2013-01-29 21:22:00,
2013-01-29 16:27:00,48.4,37.9,28.77,SW,225,9.0,11.0,67,0.00,,,0.30,meteohub,2013-01-29 21:27:00,
2013-01-29 16:32:00,48.4,37.9,28.77,SSE,158,7.0,11.0,67,0.00,,,0.30,meteohub,2013-01-29 21:32:00,
2013-01-29 16:37:00,48.7,38.3,28.77,South,180,8.0,11.0,67,0.00,,,0.30,meteohub,2013-01-29 21:37:00,
2013-01-29 16:42:00,48.7,38.3,28.77,SSW,203,8.0,11.0,67,0.00,,,0.30,meteohub,2013-01-29 21:42:00,
2013-01-29 16:47:00,49.1,38.7,28.77,SSE,158,10.0,10.0,67,0.00,,,0.30,meteohub,2013-01-29 21:47:00,
2013-01-29 16:52:00,49.1,38.7,28.77,SW,225,7.0,9.0,67,0.00,,,0.30,meteohub,2013-01-29 21:52:00,
2013-01-29 16:57:00,49.1,38.7,28.76,SW,225,5.0,11.0,67,0.00,,,0.30,meteohub,2013-01-29 21:57:00,
2013-01-29 17:02:00,49.3,38.8,28.76,SW,225,8.0,11.0,67,0.00,,,0.30,meteohub,2013-01-29 22:02:00,
2013-01-29 17:07:00,49.3,38.8,28.76,SSW,203,6.0,9.0,67,0.00,,,0.30,meteohub,2013-01-29 22:07:00,
2013-01-29 17:12:00,49.5,39.0,28.76,SSW,203,8.0,9.0,67,0.00,,,0.30,meteohub,2013-01-29 22:12:00,
2013-01-29 17:17:00,49.5,39.0,28.77,South,180,6.0,11.0,67,0.00,,,0.30,meteohub,2013-01-29 22:17:00,
2013-01-29 17:22:00,49.6,39.2,28.77,SSE,158,3.0,11.0,67,0.00,,,0.30,meteohub,2013-01-29 22:22:00,
2013-01-29 17:27:00,49.8,39.4,28.77,SSE,158,4.0,11.0,67,0.00,,,0.30,meteohub,2013-01-29 22:27:00,
2013-01-29 17:32:00,49.8,39.4,28.77,SE,135,4.0,11.0,67,0.00,,,0.30,meteohub,2013-01-29 22:32:00,
2013-01-29 17:37:00,49.8,39.4,28.77,SW,225,4.0,8.0,67,0.00,,,0.30,meteohub,2013-01-29 22:37:00,
2013-01-29 17:42:00,49.8,39.4,28.77,SW,225,4.0,8.0,67,0.00,,,0.30,meteohub,2013-01-29 22:42:00,
2013-01-29 17:47:00,49.6,39.2,28.77,SSW,203,3.0,7.0,67,0.00,,,0.30,meteohub,2013-01-29 22:47:00,
2013-01-29 17:52:00,49.5,38.7,28.77,SSW,203,3.0,7.0,66,0.00,,,0.30,meteohub,2013-01-29 22:52:00,
2013-01-29 17:57:00,49.5,39.0,28.78,SSE,158,6.0,6.0,67,0.00,,,0.30,meteohub,2013-01-29 22:57:00,
2013-01-29 18:02:00,49.5,39.0,28.78,SSE,158,4.0,5.0,67,0.00,,,0.30,meteohub,2013-01-29 23:02:00,
2013-01-29 18:07:00,49.5,38.7,28.78,SSW,203,4.0,9.0,66,0.00,,,0.30,meteohub,2013-01-29 23:07:00,
2013-01-29 18:12:00,49.3,38.5,28.78,SSE,158,2.0,9.0,66,0.00,,,0.30,meteohub,2013-01-29 23:12:00,
2013-01-29 18:17:00,49.1,38.7,28.78,SSW,203,3.0,9.0,67,0.00,,,0.30,meteohub,2013-01-29 23:17:00,
2013-01-29 18:22:00,49.1,38.7,28.78,WSW,248,4.0,9.0,67,0.00,,,0.30,meteohub,2013-01-29 23:22:00,
2013-01-29 18:27:00,49.1,38.7,28.78,WSW,248,3.0,7.0,67,0.00,,,0.30,meteohub,2013-01-29 23:27:00,
2013-01-29 18:32:00,48.7,38.3,28.78,West,270,2.0,7.0,67,0.00,,,0.30,meteohub,2013-01-29 23:32:00,
2013-01-29 18:37:00,48.7,38.3,28.78,WSW,248,2.0,5.0,67,0.02,,,0.30,meteohub,2013-01-29 23:37:00,
2013-01-29 18:42:00,48.6,38.1,28.78,NW,315,2.0,5.0,67,0.02,,,0.32,meteohub,2013-01-29 23:42:00,
2013-01-29 18:47:00,48.4,37.9,28.78,NW,315,2.0,3.0,67,0.02,,,0.32,meteohub,2013-01-29 23:47:00,
2013-01-29 18:52:00,47.3,36.5,28.78,NNW,338,4.0,4.0,66,0.02,,,0.32,meteohub,2013-01-29 23:52:00,
2013-01-29 18:57:00,45.9,35.1,28.78,NW,315,3.0,4.0,66,0.02,,,0.32,meteohub,2013-01-29 23:57:00,
2013-01-29 19:02:00,44.4,33.8,28.78,North,0,3.0,4.0,66,0.02,,,0.32,meteohub,2013-01-30 00:02:00,
2013-01-29 19:07:00,43.0,32.4,28.78,North,0,3.0,6.0,66,0.02,,,0.32,meteohub,2013-01-30 00:07:00,
2013-01-29 19:12:00,42.3,31.6,28.78,North,0,3.0,6.0,66,0.02,,,0.32,meteohub,2013-01-30 00:12:00,
2013-01-29 19:17:00,41.7,31.3,28.79,SE,135,4.0,6.0,66,0.02,,,0.32,meteohub,2013-01-30 00:17:00,
2013-01-29 19:22:00,41.7,31.3,28.79,WSW,248,2.0,6.0,66,0.02,,,0.32,meteohub,2013-01-30 00:22:00,
2013-01-29 19:27:00,41.9,31.5,28.79,NW,315,5.0,6.0,66,0.02,,,0.32,meteohub,2013-01-30 00:27:00,
2013-01-29 19:32:00,42.1,32.0,28.79,WSW,248,5.0,6.0,67,0.02,,,0.32,meteohub,2013-01-30 00:32:00,
2013-01-29 19:37:00,41.9,31.8,28.79,WNW,293,8.0,8.0,67,0.00,,,0.32,meteohub,2013-01-30 00:37:00,
2013-01-29 19:42:00,41.7,31.6,28.79,North,0,4.0,6.0,67,0.00,,,0.32,meteohub,2013-01-30 00:42:00,
2013-01-29 19:47:00,41.5,31.5,28.79,WSW,248,3.0,8.0,67,0.00,,,0.32,meteohub,2013-01-30 00:47:00,
2013-01-29 19:52:00,41.4,31.3,28.79,SW,225,5.0,8.0,67,0.00,,,0.35,meteohub,2013-01-30 00:52:00,
2013-01-29 19:57:00,41.2,31.1,28.81,NW,315,1.0,4.0,67,0.03,,,0.35,meteohub,2013-01-30 00:57:00,
2013-01-29 20:02:00,40.8,30.7,28.81,WSW,248,2.0,4.0,67,0.03,,,0.35,meteohub,2013-01-30 01:02:00,
2013-01-29 20:07:00,40.6,30.6,28.81,WNW,293,4.0,5.0,67,0.03,,,0.35,meteohub,2013-01-30 01:07:00,
2013-01-29 20:12:00,40.5,30.4,28.81,NNE,23,0.0,5.0,67,0.03,,,0.38,meteohub,2013-01-30 01:12:00,
2013-01-29 20:17:00,40.1,30.0,28.81,East,90,0.0,4.0,67,0.06,,,0.38,meteohub,2013-01-30 01:17:00,
2013-01-29 20:22:00,39.7,29.7,28.81,NE,45,0.0,4.0,67,0.06,,,0.38,meteohub,2013-01-30 01:22:00,
2013-01-29 20:27:00,39.6,29.5,28.81,NE,45,0.0,2.0,67,0.06,,,0.38,meteohub,2013-01-30 01:27:00,
2013-01-29 20:32:00,39.4,29.3,28.81,ESE,113,0.0,2.0,67,0.06,,,0.38,meteohub,2013-01-30 01:32:00,
2013-01-29 20:37:00,39.4,29.3,28.80,NE,45,0.0,2.0,67,0.06,,,0.38,meteohub,2013-01-30 01:37:00,
2013-01-29 20:42:00,39.2,29.1,28.80,NNE,23,0.0,2.0,67,0.06,,,0.38,meteohub,2013-01-30 01:42:00,
2013-01-29 20:47:00,38.8,28.8,28.80,SE,135,0.0,2.0,67,0.06,,,0.38,meteohub,2013-01-30 01:47:00,
2013-01-29 20:52:00,38.8,28.8,28.80,NNE,23,0.0,2.0,67,0.06,,,0.38,meteohub,2013-01-30 01:52:00,
2013-01-29 20:57:00,38.7,28.6,28.79,North,0,0.0,2.0,67,0.03,,,0.38,meteohub,2013-01-30 01:57:00,
2013-01-29 21:02:00,38.5,28.4,28.79,North,0,0.0,2.0,67,0.03,,,0.41,meteohub,2013-01-30 02:02:00,
2013-01-29 21:07:00,38.3,28.2,28.79,WNW,293,0.0,0.0,67,0.06,,,0.41,meteohub,2013-01-30 02:07:00,
2013-01-29 21:12:00,38.3,28.2,28.79,NW,315,0.0,0.0,67,0.06,,,0.41,meteohub,2013-01-30 02:12:00,
2013-01-29 21:17:00,38.1,28.2,28.78,NNE,23,0.0,0.0,67,0.03,,,0.41,meteohub,2013-01-30 02:17:00,
2013-01-29 21:22:00,37.9,28.4,28.78,North,0,0.0,0.0,68,0.03,,,0.43,meteohub,2013-01-30 02:22:00,
2013-01-29 21:27:00,37.9,28.4,28.78,NE,45,0.0,0.0,68,0.06,,,0.43,meteohub,2013-01-30 02:27:00,
2013-01-29 21:32:00,37.8,28.2,28.78,NNE,23,0.0,0.0,68,0.06,,,0.43,meteohub,2013-01-30 02:32:00,
2013-01-29 21:37:00,37.6,28.0,28.77,NE,45,0.0,0.0,68,0.06,,,0.43,meteohub,2013-01-30 02:37:00,
2013-01-29 21:42:00,37.6,28.0,28.77,North,0,0.0,0.0,68,0.06,,,0.43,meteohub,2013-01-30 02:42:00,
2013-01-29 21:47:00,37.4,27.9,28.77,NW,315,2.0,3.0,68,0.06,,,0.43,meteohub,2013-01-30 02:47:00,
2013-01-29 21:52:00,37.2,27.7,28.77,SSW,203,2.0,3.0,68,0.06,,,0.46,meteohub,2013-01-30 02:52:00,
2013-01-29 21:57:00,37.0,27.5,28.75,North,0,0.0,2.0,68,0.06,,,0.46,meteohub,2013-01-30 02:57:00,
2013-01-29 22:02:00,36.9,27.3,28.75,West,270,1.0,2.0,68,0.06,,,0.49,meteohub,2013-01-30 03:02:00,
2013-01-29 22:07:00,36.9,27.3,28.75,WNW,293,0.0,2.0,68,0.08,,,0.49,meteohub,2013-01-30 03:07:00,
2013-01-29 22:12:00,36.7,27.1,28.75,West,270,0.0,2.0,68,0.08,,,0.49,meteohub,2013-01-30 03:12:00,
2013-01-29 22:17:00,36.5,27.0,28.74,North,0,0.0,3.0,68,0.08,,,0.49,meteohub,2013-01-30 03:17:00,
2013-01-29 22:22:00,36.5,27.0,28.74,WNW,293,2.0,3.0,68,0.08,,,0.52,meteohub,2013-01-30 03:22:00,
2013-01-29 22:27:00,36.3,26.8,28.74,WSW,248,2.0,3.0,68,0.08,,,0.52,meteohub,2013-01-30 03:27:00,
2013-01-29 22:32:00,36.3,26.8,28.74,SW,225,0.0,3.0,68,0.08,,,0.54,meteohub,2013-01-30 03:32:00,
2013-01-29 22:37:00,36.3,26.8,28.74,NW,315,0.0,3.0,68,0.11,,,0.54,meteohub,2013-01-30 03:37:00,
2013-01-29 22:42:00,36.1,26.6,28.74,WSW,248,0.0,3.0,68,0.11,,,0.57,meteohub,2013-01-30 03:42:00,
2013-01-29 22:47:00,36.1,26.6,28.74,NE,45,0.0,2.0,68,0.11,,,0.57,meteohub,2013-01-30 03:47:00,
2013-01-29 22:52:00,36.0,26.4,28.74,NNE,23,0.0,2.0,68,0.11,,,0.59,meteohub,2013-01-30 03:52:00,
2013-01-29 22:57:00,36.0,26.4,28.74,WSW,248,0.0,0.0,68,0.13,,,0.59,meteohub,2013-01-30 03:57:00,
2013-01-29 23:02:00,36.0,26.4,28.74,NW,315,0.0,0.0,68,0.13,,,0.62,meteohub,2013-01-30 04:02:00,
2013-01-29 23:07:00,36.0,26.4,28.74,WNW,293,0.0,0.0,68,0.13,,,0.62,meteohub,2013-01-30 04:07:00,
2013-01-29 23:12:00,36.0,26.4,28.74,SSW,203,0.0,0.0,68,0.13,,,0.65,meteohub,2013-01-30 04:12:00,
2013-01-29 23:17:00,35.8,26.2,28.72,West,270,0.0,0.0,68,0.16,,,0.65,meteohub,2013-01-30 04:17:00,
2013-01-29 23:22:00,35.8,26.2,28.72,NE,45,0.0,0.0,68,0.16,,,0.68,meteohub,2013-01-30 04:22:00,
2013-01-29 23:27:00,35.8,26.2,28.72,WNW,293,0.0,0.0,68,0.13,,,0.68,meteohub,2013-01-30 04:27:00,
2013-01-29 23:32:00,35.8,26.2,28.72,WNW,293,0.0,0.0,68,0.13,,,0.70,meteohub,2013-01-30 04:32:00,
2013-01-29 23:37:00,35.6,26.1,28.71,West,270,0.0,2.0,68,0.13,,,0.70,meteohub,2013-01-30 04:37:00,
2013-01-29 23:42:00,35.8,26.2,28.71,ENE,68,1.0,2.0,68,0.13,,,0.70,meteohub,2013-01-30 04:42:00,
2013-01-29 23:47:00,35.8,26.2,28.71,NW,315,0.0,3.0,68,0.16,,,0.70,meteohub,2013-01-30 04:47:00,
2013-01-29 23:52:00,35.8,26.2,28.71,SSW,203,1.0,3.0,68,0.16,,,0.73,meteohub,2013-01-30 04:52:00,
2013-01-29 23:57:00,35.8,26.2,28.70,North,0,2.0,3.0,68,0.14,,,0.73,meteohub,2013-01-30 04:57:00,